,,PA_Meas_PMT16A,,PR_Meas_QMR101_102,,RH_Meas_QMH101,,SR_Meas_QMS101,,TA_Meas_QMH101,,GenWind,,GenWind,
time,status,PA,status,PR,status,RH,status,SR,status,TA,status,DirAvg,status,SpdAvg,
2011-06-17, 00:00:04,VALID,919.532,VALID,0,VALID,92.7998,VALID,0,VALID,20.1513,VALID,6,VALID,0.286328,
2011-06-17, 00:01:04,VALID,919.479,VALID,0,VALID,93.0133,VALID,0,VALID,20.1888,VALID,6,VALID,0.381641,
2011-06-17, 00:02:04,VALID,919.466,VALID,0,VALID,93.181,VALID,0,VALID,20.2473,VALID,6,VALID,0.415625,
2011-06-17, 00:03:04,VALID,919.435,VALID,0,VALID,93.1886,VALID,0,VALID,20.2668,VALID,6,VALID,0.375391,
2011-06-17, 00:04:04,VALID,919.432,VALID,0,VALID,93.3868,VALID,0,VALID,20.3253,VALID,6,VALID,0.615625,
2011-06-17, 00:05:04,VALID,919.436,VALID,0,VALID,92.1823,VALID,0,VALID,20.3464,VALID,6,VALID,0.441797,
2011-06-17, 00:06:04,VALID,919.422,VALID,0,VALID,92.1823,VALID,0,VALID,20.3643,VALID,6,VALID,0.398438,
2011-06-17, 00:07:04,VALID,919.425,VALID,0,VALID,91.824,VALID,0,VALID,20.3448,VALID,6,VALID,0.601953,
2011-06-17, 00:08:04,VALID,919.437,VALID,0,VALID,92.5102,VALID,0,VALID,20.3058,VALID,6,VALID,0.41875,
2011-06-17, 00:09:04,VALID,919.419,VALID,0,VALID,92.6626,VALID,0,VALID,20.2653,VALID,6,VALID,0.18125,
2011-06-17, 00:10:04,VALID,919.405,VALID,0,VALID,92.6931,VALID,0,VALID,20.3074,VALID,6,VALID,0,
2011-06-17, 00:11:04,VALID,919.399,VALID,0,VALID,92.6855,VALID,0,VALID,20.2473,VALID,6,VALID,0.634766,
2011-06-17, 00:12:04,VALID,919.363,VALID,0,VALID,92.7922,VALID,0,VALID,20.2263,VALID,6,VALID,0.518359,
2011-06-17, 00:13:04,VALID,919.368,VALID,0,VALID,93.1048,VALID,0.107441,VALID,20.2278,VALID,6,VALID,0.466406,
2011-06-17, 00:14:04,VALID,919.345,VALID,0,VALID,93.2954,VALID,0,VALID,20.2083,VALID,6,VALID,0.410547,
2011-06-17, 00:15:04,VALID,919.347,VALID,0,VALID,93.3945,VALID,0,VALID,20.2293,VALID,6,VALID,0.330469,
2011-06-17, 00:16:04,VALID,919.31,VALID,0,VALID,93.3564,VALID,0,VALID,20.2489,VALID,6,VALID,0.292969,
2011-06-17, 00:17:04,VALID,919.305,VALID,0,VALID,93.242,VALID,0,VALID,20.2879,VALID,6,VALID,0.414844,
2011-06-17, 00:18:04,VALID,919.296,VALID,0,VALID,92.9752,VALID,0,VALID,20.3074,VALID,6,VALID,0.520312,
2011-06-17, 00:19:04,VALID,919.289,VALID,0,VALID,92.8151,VALID,0,VALID,20.3674,VALID,6,VALID,0.487109,
2011-06-17, 00:20:04,VALID,919.309,VALID,0,VALID,92.5711,VALID,0,VALID,20.3464,VALID,6,VALID,0.332031,
2011-06-17, 00:21:04,VALID,919.311,VALID,0,VALID,92.2433,VALID,0,VALID,20.3269,VALID,6,VALID,0.204688,
2011-06-17, 00:22:04,VALID,919.268,VALID,0,VALID,92.1823,VALID,0,VALID,20.3284,VALID,6,VALID,0.238281,
2011-06-17, 00:23:04,VALID,919.275,VALID,0,VALID,91.7326,VALID,0,VALID,20.2684,VALID,6,VALID,0.350781,
2011-06-17, 00:24:04,VALID,919.226,VALID,0,VALID,91.6792,VALID,0,VALID,20.2293,VALID,6,VALID,0.572266,
2011-06-17, 00:25:04,VALID,919.264,VALID,0,VALID,92.3043,VALID,0,VALID,20.2098,VALID,6,VALID,0.99375,
2011-06-17, 00:26:04,VALID,919.247,VALID,0,VALID,92.0909,VALID,0,VALID,20.1318,VALID,106,VALID,0.987891,
2011-06-17, 00:27:04,VALID,919.24,VALID,0,VALID,92.4644,VALID,0,VALID,20.0148,VALID,106,VALID,1.37344,
2011-06-17, 00:28:04,VALID,919.237,VALID,0,VALID,92.9904,VALID,0,VALID,19.9173,VALID,106,VALID,1.05586,
2011-06-17, 00:29:04,VALID,919.228,VALID,0,VALID,93.3868,VALID,0,VALID,19.8783,VALID,106,VALID,1.01641,
2011-06-17, 00:30:04,VALID,919.223,VALID,0,VALID,93.5546,VALID,0,VALID,19.7808,VALID,106,VALID,0.957422,
2011-06-17, 00:31:04,VALID,919.225,VALID,0,VALID,93.9662,VALID,0,VALID,19.7223,VALID,106,VALID,1.07422,
2011-06-17, 00:32:04,VALID,919.208,VALID,0,VALID,94.4008,VALID,0,VALID,19.7028,VALID,106,VALID,0.671875,
2011-06-17, 00:33:04,VALID,919.253,VALID,0,VALID,94.6066,VALID,0,VALID,19.6638,VALID,106,VALID,0.734766,
2011-06-17, 00:34:04,VALID,919.231,VALID,0,VALID,94.7896,VALID,0,VALID,19.6443,VALID,106,VALID,0.761328,
2011-06-17, 00:35:04,VALID,919.229,VALID,0,VALID,94.8658,VALID,0,VALID,19.6248,VALID,106,VALID,0.703906,
2011-06-17, 00:36:04,VALID,919.227,VALID,0,VALID,94.9115,VALID,0,VALID,19.6053,VALID,106,VALID,0.574609,
2011-06-17, 00:37:04,VALID,919.179,VALID,0,VALID,94.8963,VALID,0,VALID,19.6053,VALID,106,VALID,0.523438,
2011-06-17, 00:38:04,VALID,919.192,VALID,0,VALID,95.1021,VALID,0,VALID,19.6053,VALID,106,VALID,0.659375,
2011-06-17, 00:39:04,VALID,919.171,VALID,0,VALID,95.2088,VALID,0,VALID,19.6248,VALID,106,VALID,0.823438,
2011-06-17, 00:40:04,VALID,919.157,VALID,0,VALID,95.1707,VALID,0,VALID,19.5858,VALID,106,VALID,0.665234,
2011-06-17, 00:41:04,VALID,919.136,VALID,0,VALID,95.2546,VALID,0,VALID,19.5858,VALID,106,VALID,0.788672,
2011-06-17, 00:42:04,VALID,919.126,VALID,0,VALID,95.2698,VALID,0,VALID,19.6053,VALID,106,VALID,0.760938,
2011-06-17, 00:43:04,VALID,919.154,VALID,0,VALID,95.3232,VALID,0,VALID,19.6458,VALID,106,VALID,0.702344,
2011-06-17, 00:44:04,VALID,919.132,VALID,0,VALID,95.4071,VALID,0.107441,VALID,19.6623,VALID,106,VALID,1.12109,
2011-06-17, 00:45:04,VALID,919.123,VALID,0,VALID,95.4833,VALID,0,VALID,19.7208,VALID,106,VALID,1.29805,
2011-06-17, 00:46:04,VALID,919.122,VALID,0,VALID,95.4452,VALID,0,VALID,19.7793,VALID,106,VALID,1.24961,
2011-06-17, 00:47:04,VALID,919.124,VALID,0,VALID,95.247,VALID,0.107441,VALID,19.7988,VALID,106,VALID,0.755469,
2011-06-17, 00:48:04,VALID,919.154,VALID,0,VALID,95.1097,VALID,0,VALID,19.8588,VALID,106,VALID,0.873438,
2011-06-17, 00:49:04,VALID,919.172,VALID,0,VALID,94.9496,VALID,0,VALID,19.8783,VALID,106,VALID,0.519141,
2011-06-17, 00:50:04,VALID,919.097,VALID,0,VALID,94.8505,VALID,0.107441,VALID,19.8573,VALID,106,VALID,0.699219,
2011-06-17, 00:51:04,VALID,919.099,VALID,0,VALID,94.7819,VALID,0.107441,VALID,19.8573,VALID,106,VALID,1.00195,
2011-06-17, 00:52:04,VALID,919.047,VALID,0,VALID,94.6905,VALID,0,VALID,19.8573,VALID,106,VALID,0.732031,
2011-06-17, 00:53:04,VALID,918.979,VALID,0,VALID,94.6218,VALID,0,VALID,19.8573,VALID,106,VALID,0.898438,
2011-06-17, 00:54:04,VALID,918.929,VALID,0,VALID,94.5456,VALID,0.107441,VALID,19.8378,VALID,106,VALID,0.766406,
2011-06-17, 00:55:04,VALID,918.911,VALID,0,VALID,94.4846,VALID,0.107441,VALID,19.8573,VALID,106,VALID,0.920313,
2011-06-17, 00:56:04,VALID,918.92,VALID,0,VALID,94.4541,VALID,0.107441,VALID,19.8183,VALID,106,VALID,0.882422,
2011-06-17, 00:57:04,VALID,918.889,VALID,0,VALID,94.3779,VALID,0.107441,VALID,19.7988,VALID,106,VALID,0.905469,
2011-06-17, 00:58:04,VALID,918.883,VALID,0,VALID,94.3779,VALID,0,VALID,19.7793,VALID,106,VALID,0.910937,
2011-06-17, 00:59:04,VALID,918.861,VALID,0,VALID,94.3245,VALID,0.107441,VALID,19.7793,VALID,106,VALID,0.925781,
2011-06-17, 01:00:04,VALID,918.879,VALID,0,VALID,94.3093,VALID,0.107441,VALID,19.7988,VALID,106,VALID,0.625,
2011-06-17, 01:01:04,VALID,918.866,VALID,0,VALID,94.2788,VALID,0,VALID,19.7988,VALID,106,VALID,0.680469,
2011-06-17, 01:02:04,VALID,918.85,VALID,0,VALID,94.2788,VALID,0,VALID,19.7988,VALID,106,VALID,0.788281,
2011-06-17, 01:03:04,VALID,918.822,VALID,0,VALID,94.2864,VALID,0.107441,VALID,19.8393,VALID,106,VALID,0.598828,
2011-06-17, 01:04:04,VALID,918.81,VALID,0,VALID,94.2178,VALID,0,VALID,19.7988,VALID,106,VALID,0.903516,
2011-06-17, 01:05:04,VALID,918.757,VALID,0,VALID,94.3245,VALID,0.107441,VALID,19.8198,VALID,106,VALID,1.1707,
2011-06-17, 01:06:04,VALID,918.732,VALID,0,VALID,94.4313,VALID,0.107441,VALID,19.8588,VALID,106,VALID,1.03203,
2011-06-17, 01:07:04,VALID,918.747,VALID,0,VALID,94.4999,VALID,0.107441,VALID,19.8963,VALID,106,VALID,1.07305,
2011-06-17, 01:08:04,VALID,918.719,VALID,0,VALID,94.416,VALID,0.107441,VALID,19.9353,VALID,106,VALID,0.978125,
2011-06-17, 01:09:04,VALID,918.675,VALID,0,VALID,94.294,VALID,0.107441,VALID,19.9743,VALID,106,VALID,1.06836,
2011-06-17, 01:10:04,VALID,918.691,VALID,0,VALID,94.2102,VALID,0.107441,VALID,19.9938,VALID,106,VALID,1.025,
2011-06-17, 01:11:04,VALID,918.679,VALID,0,VALID,94.0501,VALID,0.107441,VALID,20.0328,VALID,106,VALID,0.914453,
2011-06-17, 01:12:04,VALID,918.65,VALID,0,VALID,93.7985,VALID,0,VALID,20.1108,VALID,106,VALID,1.07969,
2011-06-17, 01:13:04,VALID,918.611,VALID,0,VALID,93.364,VALID,0,VALID,20.1303,VALID,106,VALID,0.902344,
2011-06-17, 01:14:04,VALID,918.611,VALID,0,VALID,92.9371,VALID,0.107441,VALID,20.1108,VALID,106,VALID,1.03359,
2011-06-17, 01:15:04,VALID,918.614,VALID,0,VALID,92.6093,VALID,0,VALID,20.0523,VALID,106,VALID,0.554297,
2011-06-17, 01:16:04,VALID,918.575,VALID,0,VALID,92.7922,VALID,0,VALID,19.9743,VALID,106,VALID,0.8125,
2011-06-17, 01:17:04,VALID,918.579,VALID,0,VALID,93.1429,VALID,0.107441,VALID,19.9758,VALID,106,VALID,0.807813,
2011-06-17, 01:18:04,VALID,918.576,VALID,0,VALID,93.3182,VALID,0.107441,VALID,19.9353,VALID,106,VALID,0.889844,
2011-06-17, 01:19:04,VALID,918.582,VALID,0,VALID,93.5393,VALID,0.107441,VALID,19.9353,VALID,106,VALID,0.916797,
2011-06-17, 01:20:04,VALID,918.602,VALID,0,VALID,93.6842,VALID,0.107441,VALID,19.9548,VALID,106,VALID,1.00937,
2011-06-17, 01:21:04,VALID,918.614,VALID,0,VALID,93.6842,VALID,0.107441,VALID,19.9533,VALID,106,VALID,1.12227,
2011-06-17, 01:22:04,VALID,918.594,VALID,0,VALID,93.7147,VALID,0.107441,VALID,19.9743,VALID,106,VALID,1.26992,
2011-06-17, 01:23:04,VALID,918.603,VALID,0,VALID,93.6155,VALID,0.214882,VALID,20.0133,VALID,106,VALID,1.21094,
2011-06-17, 01:24:04,VALID,918.581,VALID,0,VALID,93.5546,VALID,0.107441,VALID,20.0538,VALID,106,VALID,1.23398,
2011-06-17, 01:25:04,VALID,918.522,VALID,0,VALID,93.3945,VALID,0,VALID,20.0733,VALID,106,VALID,1.1418,
2011-06-17, 01:26:04,VALID,918.518,VALID,0,VALID,93.12,VALID,0.107441,VALID,20.0523,VALID,106,VALID,0.820313,
2011-06-17, 01:27:04,VALID,918.482,VALID,0,VALID,93.0285,VALID,0,VALID,20.0523,VALID,106,VALID,0.812109,
2011-06-17, 01:28:04,VALID,918.497,VALID,0,VALID,92.9904,VALID,0.107441,VALID,20.0523,VALID,106,VALID,0.773828,
2011-06-17, 01:29:04,VALID,918.489,VALID,0,VALID,92.9523,VALID,0,VALID,20.0343,VALID,106,VALID,0.714063,
2011-06-17, 01:30:04,VALID,918.474,VALID,0,VALID,92.7846,VALID,0,VALID,20.0343,VALID,106,VALID,0.722656,
2011-06-17, 01:31:04,VALID,918.469,VALID,0,VALID,92.7389,VALID,0,VALID,20.0358,VALID,106,VALID,0.655078,
2011-06-17, 01:32:04,VALID,918.43,VALID,0,VALID,93.0057,VALID,0,VALID,20.0148,VALID,106,VALID,1.08516,
2011-06-17, 01:33:04,VALID,918.427,VALID,0,VALID,92.9981,VALID,0,VALID,20.0749,VALID,106,VALID,1.30273,
2011-06-17, 01:34:04,VALID,918.425,VALID,0,VALID,92.777,VALID,0,VALID,20.0538,VALID,106,VALID,1.05117,
2011-06-17, 01:35:04,VALID,918.386,VALID,0,VALID,92.7312,VALID,0,VALID,20.0538,VALID,106,VALID,1.22812,
2011-06-17, 01:36:04,VALID,918.407,VALID,0,VALID,92.7084,VALID,0,VALID,20.0343,VALID,105,VALID,1.25352,
2011-06-17, 01:37:04,VALID,918.363,VALID,0,VALID,92.7541,VALID,0,VALID,20.0538,VALID,105,VALID,0.983984,
2011-06-17, 01:38:04,VALID,918.298,VALID,0,VALID,92.7084,VALID,0,VALID,20.0733,VALID,99,VALID,1.01484,
2011-06-17, 01:39:04,VALID,918.298,VALID,0,VALID,92.5864,VALID,0,VALID,20.1123,VALID,99,VALID,0.900391,
2011-06-17, 01:40:04,VALID,918.286,VALID,0,VALID,92.3958,VALID,0,VALID,20.1318,VALID,99,VALID,0.744922,
2011-06-17, 01:41:04,VALID,918.293,VALID,0,VALID,91.9536,VALID,0,VALID,20.0928,VALID,99,VALID,0.836719,
2011-06-17, 01:42:04,VALID,918.3,VALID,0,VALID,91.5496,VALID,0,VALID,20.0148,VALID,99,VALID,0.987891,
2011-06-17, 01:43:04,VALID,918.281,VALID,0,VALID,91.7707,VALID,0,VALID,19.9368,VALID,99,VALID,0.939844,
2011-06-17, 01:44:04,VALID,918.249,VALID,0,VALID,92.3043,VALID,0,VALID,19.8963,VALID,99,VALID,0.872656,
2011-06-17, 01:45:04,VALID,918.224,VALID,0,VALID,92.6474,VALID,0.107441,VALID,19.8573,VALID,99,VALID,0.891016,
2011-06-17, 01:46:04,VALID,918.207,VALID,0,VALID,93.0285,VALID,0,VALID,19.8783,VALID,99,VALID,0.883594,
2011-06-17, 01:47:04,VALID,918.177,VALID,0,VALID,93.2191,VALID,0,VALID,19.8618,VALID,99,VALID,0.978516,
2011-06-17, 01:48:04,VALID,918.18,VALID,0,VALID,93.5622,VALID,0,VALID,19.7598,VALID,99,VALID,0.821094,
2011-06-17, 01:49:04,VALID,918.172,VALID,0,VALID,93.8214,VALID,0,VALID,19.7808,VALID,99,VALID,0.522656,
2011-06-17, 01:50:04,VALID,918.158,VALID,0,VALID,93.829,VALID,0.107441,VALID,19.6998,VALID,99,VALID,0.330469,
2011-06-17, 01:51:04,VALID,918.109,VALID,0,VALID,93.89,VALID,0.107441,VALID,19.7013,VALID,99,VALID,0.398047,
2011-06-17, 01:52:04,VALID,918.076,VALID,0,VALID,94.1416,VALID,0,VALID,19.7013,VALID,99,VALID,0.611328,
2011-06-17, 01:53:04,VALID,918.066,VALID,0,VALID,94.2559,VALID,0,VALID,19.6803,VALID,99,VALID,0.625,
2011-06-17, 01:54:04,VALID,918.026,VALID,0,VALID,94.2788,VALID,0.107441,VALID,19.7013,VALID,99,VALID,0.596094,
2011-06-17, 01:55:04,VALID,918.003,VALID,0,VALID,94.294,VALID,0.107441,VALID,19.7208,VALID,99,VALID,0.871484,
2011-06-17, 01:56:04,VALID,917.954,VALID,0,VALID,94.2635,VALID,0.107441,VALID,19.7808,VALID,99,VALID,0.822656,
2011-06-17, 01:57:04,VALID,917.927,VALID,0,VALID,94.1721,VALID,0.107441,VALID,19.7778,VALID,99,VALID,0.905078,
2011-06-17, 01:58:04,VALID,917.908,VALID,0,VALID,93.9738,VALID,0,VALID,19.8378,VALID,99,VALID,1.03008,
2011-06-17, 01:59:04,VALID,917.922,VALID,0,VALID,93.6537,VALID,0,VALID,19.8993,VALID,99,VALID,0.585938,
2011-06-17, 02:00:04,VALID,917.89,VALID,0,VALID,93.2268,VALID,0,VALID,19.8183,VALID,99,VALID,0.428516,
2011-06-17, 02:01:04,VALID,917.915,VALID,0,VALID,93.181,VALID,0,VALID,19.8003,VALID,99,VALID,0.601563,
2011-06-17, 02:02:04,VALID,917.869,VALID,0,VALID,93.3335,VALID,0,VALID,19.7808,VALID,99,VALID,0.909766,
2011-06-17, 02:03:04,VALID,917.852,VALID,0,VALID,93.6232,VALID,0,VALID,19.7808,VALID,99,VALID,0.999609,
2011-06-17, 02:04:04,VALID,917.813,VALID,0,VALID,93.7451,VALID,0,VALID,19.8003,VALID,99,VALID,0.750781,
2011-06-17, 02:05:04,VALID,917.811,VALID,0,VALID,93.768,VALID,0,VALID,19.8213,VALID,99,VALID,0.816016,
2011-06-17, 02:06:04,VALID,917.788,VALID,0,VALID,93.8443,VALID,0,VALID,19.8003,VALID,99,VALID,0.688281,
2011-06-17, 02:07:04,VALID,917.769,VALID,0,VALID,93.8747,VALID,0,VALID,19.7793,VALID,99,VALID,0.520312,
2011-06-17, 02:08:04,VALID,917.804,VALID,0,VALID,93.7833,VALID,0,VALID,19.8003,VALID,99,VALID,0.475391,
2011-06-17, 02:09:04,VALID,917.816,VALID,0,VALID,93.8519,VALID,0,VALID,19.8003,VALID,99,VALID,0.701563,
2011-06-17, 02:10:04,VALID,917.778,VALID,0,VALID,93.8443,VALID,0,VALID,19.8198,VALID,99,VALID,0.607422,
2011-06-17, 02:11:04,VALID,917.804,VALID,0,VALID,93.7756,VALID,0,VALID,19.8408,VALID,99,VALID,0.735937,
2011-06-17, 02:12:04,VALID,917.804,VALID,0,VALID,93.7299,VALID,0,VALID,19.8198,VALID,99,VALID,0.65,
2011-06-17, 02:13:04,VALID,917.782,VALID,0,VALID,93.707,VALID,0,VALID,19.8408,VALID,99,VALID,0.548828,
2011-06-17, 02:14:04,VALID,917.791,VALID,0,VALID,93.5164,VALID,0,VALID,19.8003,VALID,99,VALID,0.435547,
2011-06-17, 02:15:04,VALID,917.785,VALID,0,VALID,93.5241,VALID,0,VALID,19.8018,VALID,99,VALID,0.913281,
2011-06-17, 02:16:04,VALID,917.8,VALID,0,VALID,93.7147,VALID,0,VALID,19.7808,VALID,99,VALID,0.992188,
2011-06-17, 02:17:04,VALID,917.789,VALID,0,VALID,93.7528,VALID,0,VALID,19.8018,VALID,99,VALID,0.915234,
2011-06-17, 02:18:04,VALID,917.79,VALID,0,VALID,93.829,VALID,0,VALID,19.7613,VALID,99,VALID,1.13516,
2011-06-17, 02:19:04,VALID,917.783,VALID,0,VALID,93.9281,VALID,0,VALID,19.7418,VALID,99,VALID,1.09063,
2011-06-17, 02:20:04,VALID,917.758,VALID,0,VALID,94.0272,VALID,0,VALID,19.7433,VALID,100,VALID,1.13281,
2011-06-17, 02:21:04,VALID,917.721,VALID,0,VALID,94.1111,VALID,0,VALID,19.6848,VALID,100,VALID,1.14688,
2011-06-17, 02:22:04,VALID,917.759,VALID,0,VALID,94.2026,VALID,0,VALID,19.6263,VALID,100,VALID,1.06953,
2011-06-17, 02:23:04,VALID,917.711,VALID,0,VALID,94.4389,VALID,0,VALID,19.5858,VALID,101,VALID,1.03828,
2011-06-17, 02:24:04,VALID,917.703,VALID,0,VALID,94.599,VALID,0,VALID,19.5663,VALID,101,VALID,0.854297,
2011-06-17, 02:25:04,VALID,917.672,VALID,0,VALID,94.7514,VALID,0,VALID,19.5273,VALID,101,VALID,0.940625,
2011-06-17, 02:26:04,VALID,917.617,VALID,0,VALID,94.881,VALID,0,VALID,19.5483,VALID,101,VALID,0.676953,
2011-06-17, 02:27:04,VALID,917.627,VALID,0,VALID,94.9573,VALID,0,VALID,19.5678,VALID,101,VALID,0.680859,
2011-06-17, 02:28:04,VALID,917.618,VALID,0,VALID,94.9801,VALID,0,VALID,19.5468,VALID,101,VALID,0.58125,
2011-06-17, 02:29:04,VALID,917.594,VALID,0,VALID,94.9801,VALID,0,VALID,19.5873,VALID,101,VALID,0.835938,
2011-06-17, 02:30:04,VALID,917.577,VALID,0,VALID,94.881,VALID,0,VALID,19.5453,VALID,101,VALID,0.667578,
2011-06-17, 02:31:04,VALID,917.604,VALID,0,VALID,94.8582,VALID,0,VALID,19.5438,VALID,101,VALID,0.889063,
2011-06-17, 02:32:04,VALID,917.583,VALID,0,VALID,94.8048,VALID,0,VALID,19.5828,VALID,101,VALID,0.755469,
2011-06-17, 02:33:04,VALID,917.597,VALID,0,VALID,94.7362,VALID,0,VALID,19.6233,VALID,101,VALID,0.960156,
2011-06-17, 02:34:04,VALID,917.56,VALID,0,VALID,94.5913,VALID,0,VALID,19.6833,VALID,101,VALID,0.838281,
2011-06-17, 02:35:04,VALID,917.545,VALID,0,VALID,94.4999,VALID,0,VALID,19.6428,VALID,101,VALID,0.844531,
2011-06-17, 02:36:04,VALID,917.494,VALID,0,VALID,94.4084,VALID,0,VALID,19.6608,VALID,101,VALID,0.943359,
2011-06-17, 02:37:04,VALID,917.492,VALID,0,VALID,94.294,VALID,0,VALID,19.6833,VALID,101,VALID,0.948828,
2011-06-17, 02:38:04,VALID,917.495,VALID,0,VALID,94.1492,VALID,0,VALID,19.6833,VALID,101,VALID,1.04023,
2011-06-17, 02:39:04,VALID,917.503,VALID,0,VALID,94.012,VALID,0,VALID,19.6848,VALID,101,VALID,0.924609,
2011-06-17, 02:40:04,VALID,917.468,VALID,0,VALID,93.9967,VALID,0,VALID,19.6833,VALID,101,VALID,1.12812,
2011-06-17, 02:41:04,VALID,917.475,VALID,0,VALID,93.9205,VALID,0,VALID,19.6638,VALID,101,VALID,1.12227,
2011-06-17, 02:42:04,VALID,917.483,VALID,0,VALID,93.7909,VALID,0,VALID,19.6233,VALID,101,VALID,1.02539,
2011-06-17, 02:43:04,VALID,917.494,VALID,0,VALID,93.6994,VALID,0,VALID,19.6248,VALID,101,VALID,0.736719,
2011-06-17, 02:44:04,VALID,917.524,VALID,0,VALID,93.8061,VALID,0,VALID,19.6683,VALID,101,VALID,0.946094,
2011-06-17, 02:45:04,VALID,917.572,VALID,0,VALID,93.8443,VALID,0,VALID,19.6053,VALID,101,VALID,0.925,
2011-06-17, 02:46:04,VALID,917.567,VALID,0,VALID,93.9738,VALID,0,VALID,19.6053,VALID,101,VALID,0.945703,
2011-06-17, 02:47:04,VALID,917.541,VALID,0,VALID,94.0425,VALID,0,VALID,19.6878,VALID,101,VALID,1.04688,
2011-06-17, 02:48:04,VALID,917.538,VALID,0,VALID,93.9738,VALID,0,VALID,19.6068,VALID,101,VALID,0.670703,
2011-06-17, 02:49:04,VALID,917.5,VALID,0,VALID,94.0043,VALID,0,VALID,19.5843,VALID,101,VALID,0.529688,
2011-06-17, 02:50:04,VALID,917.505,VALID,0,VALID,94.0806,VALID,0,VALID,19.5828,VALID,101,VALID,0.880078,
2011-06-17, 02:51:04,VALID,917.506,VALID,0,VALID,94.0882,VALID,0,VALID,19.6053,VALID,101,VALID,0.500781,
2011-06-17, 02:52:04,VALID,917.506,VALID,0,VALID,94.0272,VALID,0,VALID,19.6248,VALID,101,VALID,0.517578,
2011-06-17, 02:53:04,VALID,917.522,VALID,0,VALID,93.9738,VALID,0,VALID,19.5633,VALID,101,VALID,0.712109,
2011-06-17, 02:54:04,VALID,917.527,VALID,0,VALID,93.8671,VALID,0,VALID,19.5648,VALID,101,VALID,0.983984,
2011-06-17, 02:55:04,VALID,917.52,VALID,0,VALID,93.9357,VALID,0,VALID,19.6053,VALID,101,VALID,1.16289,
2011-06-17, 02:56:04,VALID,917.508,VALID,0,VALID,93.9434,VALID,0,VALID,19.6458,VALID,102,VALID,1.12422,
2011-06-17, 02:57:04,VALID,917.483,VALID,0,VALID,93.89,VALID,0,VALID,19.6458,VALID,102,VALID,1.06094,
2011-06-17, 02:58:04,VALID,917.472,VALID,0,VALID,93.7756,VALID,0,VALID,19.6458,VALID,102,VALID,0.830078,
2011-06-17, 02:59:04,VALID,917.432,VALID,0,VALID,93.646,VALID,0,VALID,19.5648,VALID,102,VALID,0.830078,
2011-06-17, 03:00:04,VALID,917.412,VALID,0,VALID,93.5774,VALID,0,VALID,19.5843,VALID,102,VALID,0.860156,
2011-06-17, 03:01:04,VALID,917.392,VALID,0,VALID,93.5469,VALID,0,VALID,19.6263,VALID,102,VALID,0.891797,
2011-06-17, 03:02:04,VALID,917.353,VALID,0,VALID,93.4478,VALID,0,VALID,19.6248,VALID,102,VALID,0.910547,
2011-06-17, 03:03:04,VALID,917.322,VALID,0,VALID,93.3182,VALID,0,VALID,19.6263,VALID,102,VALID,0.936719,
2011-06-17, 03:04:04,VALID,917.309,VALID,0,VALID,93.3335,VALID,0,VALID,19.6458,VALID,102,VALID,1.22344,
2011-06-17, 03:05:04,VALID,917.285,VALID,0,VALID,93.2725,VALID,0,VALID,19.6458,VALID,102,VALID,0.920313,
2011-06-17, 03:06:04,VALID,917.271,VALID,0,VALID,93.2268,VALID,0,VALID,19.6443,VALID,102,VALID,1.14961,
2011-06-17, 03:07:04,VALID,917.285,VALID,0,VALID,93.0895,VALID,0,VALID,19.7043,VALID,102,VALID,1.07148,
2011-06-17, 03:08:04,VALID,917.252,VALID,0,VALID,92.9142,VALID,0,VALID,19.7028,VALID,102,VALID,1.23125,
2011-06-17, 03:09:04,VALID,917.203,VALID,0,VALID,92.7236,VALID,0,VALID,19.7238,VALID,102,VALID,1.02344,
2011-06-17, 03:10:04,VALID,917.205,VALID,0,VALID,92.6397,VALID,0,VALID,19.7238,VALID,102,VALID,0.962109,
2011-06-17, 03:11:04,VALID,917.19,VALID,0,VALID,92.594,VALID,0,VALID,19.7463,VALID,102,VALID,0.999219,
2011-06-17, 03:12:04,VALID,917.188,VALID,0,VALID,92.6093,VALID,0,VALID,19.6638,VALID,102,VALID,1.07031,
2011-06-17, 03:13:04,VALID,917.152,VALID,0,VALID,92.6245,VALID,0,VALID,19.6653,VALID,102,VALID,0.967578,
2011-06-17, 03:14:04,VALID,917.129,VALID,0,VALID,92.5559,VALID,0,VALID,19.7043,VALID,102,VALID,0.987891,
2011-06-17, 03:15:04,VALID,917.165,VALID,0,VALID,92.4644,VALID,0,VALID,19.6638,VALID,102,VALID,0.886719,
2011-06-17, 03:16:04,VALID,917.142,VALID,0,VALID,92.3806,VALID,0,VALID,19.7463,VALID,102,VALID,1.06602,
2011-06-17, 03:17:04,VALID,917.146,VALID,0,VALID,92.2128,VALID,0,VALID,19.7028,VALID,102,VALID,0.819922,
2011-06-17, 03:18:04,VALID,917.145,VALID,0,VALID,92.251,VALID,0,VALID,19.6638,VALID,102,VALID,0.777734,
2011-06-17, 03:19:04,VALID,917.14,VALID,0,VALID,92.3424,VALID,0,VALID,19.6638,VALID,102,VALID,0.724609,
2011-06-17, 03:20:04,VALID,917.124,VALID,0,VALID,92.3348,VALID,0,VALID,19.6443,VALID,102,VALID,0.823828,
2011-06-17, 03:21:04,VALID,917.159,VALID,0,VALID,92.2967,VALID,0,VALID,19.6053,VALID,102,VALID,0.909766,
2011-06-17, 03:22:04,VALID,917.111,VALID,0,VALID,92.4644,VALID,0,VALID,19.6473,VALID,102,VALID,1.22266,
2011-06-17, 03:23:04,VALID,917.112,VALID,0,VALID,92.3501,VALID,0,VALID,19.6443,VALID,102,VALID,1.00078,
2011-06-17, 03:24:04,VALID,917.099,VALID,0,VALID,92.2357,VALID,0,VALID,19.6833,VALID,103,VALID,0.735547,
2011-06-17, 03:25:04,VALID,917.082,VALID,0,VALID,92.0909,VALID,0,VALID,19.7043,VALID,103,VALID,0.887891,
2011-06-17, 03:26:04,VALID,917.085,VALID,0,VALID,92.007,VALID,0,VALID,19.7043,VALID,103,VALID,0.736719,
2011-06-17, 03:27:04,VALID,917.084,VALID,0,VALID,91.8622,VALID,0,VALID,19.7463,VALID,103,VALID,0.536719,
2011-06-17, 03:28:04,VALID,917.092,VALID,0,VALID,91.8088,VALID,0,VALID,19.7463,VALID,103,VALID,0.550391,
2011-06-17, 03:29:04,VALID,917.054,VALID,0,VALID,91.7707,VALID,0,VALID,19.6833,VALID,103,VALID,0.714063,
2011-06-17, 03:30:04,VALID,917.07,VALID,0,VALID,91.8317,VALID,0,VALID,19.6443,VALID,103,VALID,0.908594,
2011-06-17, 03:31:04,VALID,917.046,VALID,0,VALID,91.8774,VALID,0,VALID,19.6443,VALID,103,VALID,0.785937,
2011-06-17, 03:32:04,VALID,917.014,VALID,0,VALID,91.8545,VALID,0.107441,VALID,19.6233,VALID,103,VALID,0.709375,
2011-06-17, 03:33:04,VALID,917.018,VALID,0,VALID,91.8393,VALID,0,VALID,19.6023,VALID,103,VALID,0.717188,
2011-06-17, 03:34:04,VALID,916.985,VALID,0,VALID,91.8469,VALID,0,VALID,19.6653,VALID,103,VALID,0.389062,
2011-06-17, 03:35:04,VALID,916.967,VALID,0,VALID,91.7783,VALID,0.107441,VALID,19.6248,VALID,103,VALID,0.58125,
2011-06-17, 03:36:04,VALID,916.992,VALID,0,VALID,91.7935,VALID,0,VALID,19.5843,VALID,103,VALID,0.896875,
2011-06-17, 03:37:04,VALID,916.981,VALID,0,VALID,92.0299,VALID,0.107441,VALID,19.5648,VALID,103,VALID,0.887109,
2011-06-17, 03:38:04,VALID,916.979,VALID,0,VALID,92.1976,VALID,0,VALID,19.5663,VALID,103,VALID,1.0582,
2011-06-17, 03:39:04,VALID,916.99,VALID,0,VALID,92.2433,VALID,0,VALID,19.5453,VALID,103,VALID,0.525391,
2011-06-17, 03:40:04,VALID,916.988,VALID,0,VALID,92.2662,VALID,0.107441,VALID,19.5258,VALID,103,VALID,0.884375,
2011-06-17, 03:41:04,VALID,916.972,VALID,0,VALID,92.3272,VALID,0,VALID,19.5258,VALID,103,VALID,0.627344,
2011-06-17, 03:42:04,VALID,916.958,VALID,0,VALID,92.4568,VALID,0,VALID,19.4673,VALID,103,VALID,0.347656,
2011-06-17, 03:43:04,VALID,916.938,VALID,0,VALID,92.594,VALID,0,VALID,19.4688,VALID,103,VALID,0.401563,